RH
100 100 78 70 67 51 34 29 27 33 46 51 52 52 59 63 61 58 59 57 43 35 33 38 40 40 46 45 44 42 30 30 27
100 100 100 100 98 79 46 34 31 26 33 46 47 50 46 46 51 60 55 46 39 33 35 41 42 45 48 50 45 45 36 29 29
100 100 100 100 100 100 92 48 35 30 25 34 41 50 49 35 38 51 50 41 35 31 35 43 45 49 51 52 49 43 53 32 34
100 100 100 100 100 100 100 98 55 36 31 25 34 38 38 38 29 33 41 39 32 29 32 43 44 50 54 51 49 46 49 57 35
100 100 100 100 92 100 100 100 99 55 36 33 24 32 33 36 29 26 27 35 30 27 33 40 42 48 56 51 45 48 48 58 61
100 100 100 100 100 100 100 100 100 91 53 38 32 24 30 36 32 26 24 26 28 26 31 36 38 45 53 52 47 48 47 55 59
100 100 100 100 100 100 100 100 100 100 95 62 42 28 25 25 30 27 23 23 24 24 28 33 35 41 45 47 45 50 48 48 56
98 95 100 100 100 98 100 100 100 100 100 100 82 44 32 28 25 23 23 22 22 24 27 29 31 37 38 43 46 46 48 48 56
98 94 81 100 100 100 88 100 100 100 100 100 100 96 52 39 32 26 23 22 22 22 24 26 28 32 32 40 44 45 48 47 54
100 100 100 95 83 100 100 100 100 100 100 100 100 100 100 65 48 36 29 26 26 23 22 23 24 26 28 29 35 44 48 47 73
100 100 100 100 100 94 83 97 100 100 99 100 100 100 100 100 98 74 54 35 29 30 29 28 27 27 28 32 40 44 44 52 68
100 100 100 100 100 100 100 89 66 100 100 100 100 100 100 99 100 100 100 100 73 43 32 34 34 34 35 39 40 40 40 43 80
100 100 100 100 100 100 100 100 100 78 99 100 100 100 100 100 100 96 97 100 100 94 64 40 34 34 36 37 37 38 38 40 77
88 95 100 100 100 100 100 100 90 91 72 99 100 100 100 100 100 100 100 100 100 100 100 83 54 40 34 36 36 36 38 41 88
80 98 96 96 100 100 95 100 100 100 98 81 80 100 100 100 100 100 100 100 100 100 100 100 100 80 53 51 43 42 38 38 86
75 70 100 100 100 94 100 85 100 100 100 100 100 89 95 100 100 100 100 100 100 100 100 100 100 100 100 83 65 58 61 62 89
27 86 90 100 100 100 100 85 95 100 100 100 87 95 98 86 91 92 100 100 100 100 100 100 100 100 100 100 100 100 100 100 100
18 24 83 100 100 100 100 100 100 100 100 100 99 86 97 100 91 95 96 88 100 100 100 100 100 100 100 91 81 94 100 100 100
10 14 18 47 100 100 100 100 100 100 100 100 100 74 99 100 100 99 85 95 100 100 100 100 100 100 97 98 98 85 77 75 86
13 11 13 18 34 100 100 100 100 100 100 100 100 97 100 85 98 97 79 70 93 100 100 97 95 94 99 100 100 100 98 79 82
Wind_Speed
24 25 23 24 26 23 22 22 22 24 24 26 26 24 23 23 22 22 21 21 20 20 17 14 13 11 10 11 11 11 12 11 15
24 26 26 30 30 28 26 25 24 24 25 26 28 26 25 23 22 22 23 22 23 22 18 15 13 11 10 11 13 12 13 12 15
26 27 27 25 32 33 30 28 28 27 26 27 27 29 27 25 24 24 24 24 25 23 20 17 15 13 13 12 13 15 14 14 16
30 31 29 29 26 32 35 32 30 31 29 27 29 29 29 27 25 24 25 25 26 25 22 19 17 16 16 15 14 17 18 16 19
35 36 34 31 31 29 31 36 36 33 33 31 30 31 30 29 27 26 26 28 28 26 25 21 19 19 18 18 17 18 20 20 21
33 35 35 38 33 31 30 33 36 37 36 36 34 32 33 33 31 30 28 28 30 29 29 26 23 22 21 20 21 21 22 21 24
42 41 38 41 40 36 37 34 37 38 40 40 38 37 34 33 33 32 32 31 31 32 31 29 27 27 25 25 25 24 25 25 28
49 48 42 45 45 44 40 42 40 41 41 43 43 41 40 38 37 36 36 35 35 34 34 32 31 31 30 30 28 28 28 29 32
54 53 54 49 47 49 48 46 46 44 44 45 47 46 45 43 41 41 40 38 39 38 39 36 34 34 33 32 34 32 30 31 34
59 57 55 53 57 50 52 53 50 48 48 48 48 48 49 47 48 45 44 43 41 40 42 41 40 39 38 36 37 36 33 32 35
71 68 65 57 54 58 59 57 57 56 53 50 54 52 50 49 50 51 49 48 46 45 44 43 42 40 38 37 38 36 35 33 34
78 77 73 71 68 64 62 65 64 62 59 56 54 54 54 53 50 49 48 51 52 50 48 47 45 42 41 39 38 39 37 36 32
86 84 80 76 74 72 69 73 75 73 67 64 62 60 59 56 54 53 49 48 51 53 53 51 51 48 46 44 43 44 41 40 33
93 95 89 85 80 77 74 67 76 77 77 72 67 64 63 63 61 58 56 55 51 51 52 53 54 52 51 50 49 48 47 43 37
100 95 95 94 92 88 83 80 80 79 77 81 79 68 64 65 63 62 62 61 60 57 53 51 53 57 56 53 51 49 48 41 40
110 112 97 96 93 98 94 91 88 87 86 83 83 79 77 74 69 73 69 66 64 64 62 57 50 49 54 57 56 54 50 47 44
108 110 112 102 96 93 96 97 90 90 93 96 93 86 86 83 81 79 72 69 70 67 67 65 60 54 49 48 51 52 51 47 44
115 113 115 112 108 99 98 96 92 91 92 93 93 93 90 85 88 85 84 80 72 71 70 69 67 61 56 52 50 47 46 44 44
112 119 120 117 114 109 102 99 96 95 90 90 89 94 92 92 86 89 90 87 81 79 75 72 69 66 63 60 55 55 55 52 50
120 119 122 125 121 117 113 104 104 102 94 95 93 95 94 97 86 84 93 92 88 88 83 80 75 71 65 62 61 60 58 57 56
Wind_Direction
256 251 252 253 255 255 254 260 262 255 250 243 244 247 246 244 246 246 246 244 242 245 252 259 266 268 292 304 313 323 327 319 340
245 251 260 261 256 252 251 253 258 260 255 248 245 245 247 246 245 244 242 242 241 243 248 259 268 268 278 295 301 311 319 308 328
238 248 253 252 261 254 251 250 254 257 259 253 247 245 247 249 246 243 242 241 237 240 245 256 263 268 276 281 294 299 310 303 312
245 245 253 250 250 263 257 251 250 255 257 257 253 244 244 248 247 243 246 244 236 240 243 252 262 268 272 278 288 297 301 300 302
248 249 248 243 244 254 268 263 252 249 254 254 253 254 247 246 247 245 244 245 240 242 243 250 262 264 266 274 281 285 295 301 308
240 250 255 245 243 245 256 266 264 254 250 253 253 250 252 252 248 245 242 242 241 243 243 249 260 265 261 269 280 284 289 298 302
232 240 244 252 242 253 260 258 262 264 256 252 251 251 249 249 250 247 245 242 241 244 243 247 253 260 264 269 274 281 288 295 300
231 230 239 244 245 238 248 257 257 260 260 256 253 250 250 251 250 249 248 246 245 244 246 247 251 255 263 266 268 275 284 293 300
237 237 238 237 243 242 239 245 252 253 257 256 254 255 251 249 251 251 250 249 248 247 248 249 251 251 257 263 268 271 279 288 296
237 241 242 244 240 240 243 243 243 246 254 256 256 255 254 253 251 251 253 253 252 251 251 251 251 253 256 260 266 270 275 287 296
239 240 242 243 245 245 244 242 241 243 244 252 255 252 255 255 254 252 253 254 253 253 255 256 255 257 257 258 260 267 274 285 292
244 242 244 244 245 245 249 250 245 240 240 244 250 254 251 252 255 257 262 258 255 255 253 256 258 257 258 258 261 265 271 280 283
243 245 245 246 245 247 250 254 251 245 242 242 243 246 249 251 252 253 255 262 260 255 255 255 257 257 258 258 260 266 269 272 273
246 244 245 247 246 247 244 240 248 250 245 242 242 243 246 247 248 249 248 255 258 261 259 256 256 259 259 261 262 264 270 270 267
245 245 247 244 245 243 247 240 246 248 248 245 241 238 243 244 243 247 251 252 255 255 257 259 259 257 258 260 261 262 267 269 264
244 244 241 243 244 246 239 246 247 246 246 243 241 241 237 237 240 244 242 246 249 252 253 254 257 261 259 256 259 260 263 264 264
240 240 241 237 238 237 243 245 243 243 241 245 242 240 242 242 241 239 241 245 246 247 251 252 254 255 258 262 261 262 263 266 267
239 238 238 238 235 232 234 236 237 235 239 239 240 239 240 241 242 244 246 244 243 247 247 248 250 252 254 256 259 262 263 264 266
240 239 236 236 233 230 227 231 231 231 234 236 234 238 236 237 241 242 243 244 245 245 245 246 247 249 251 253 255 257 259 261 262
241 241 239 234 233 229 225 225 226 227 229 233 236 239 239 240 235 237 240 241 245 246 246 246 247 247 249 250 252 254 255 259 262